Weather in Thisted

Denmark     56°57′18″N   8°41′50″E
temp.,
°C
wind,
m/s
gust,
m/s
humid.,
%
clouds,
%
prec.,
mm/h
press.,
hPa
HPBL,
m
11 april, sun
sun1123:00+3w33765 0.0 1016126
02:00+3nw117576 0.1 101660
05:00+3e3372100 0.0 1015247
08:00+4ene3572100 0.1 1015325
11:00+4ene4677100 0.3 1014822
14:00+3ne7988100 2.2 1013804
17:00+2ne61097100 2.1 1013580
20:00+2nne71097100 3.8 1012553
12 april, mon
mon1223:00+2n7997100 1.3 1012515
02:00+2nnw81097100 2.1 1013668
05:00+2nw798868 0.6 1014554
08:00+4wnw7107380 0.8 1015991
11:00+5w9106574 0.4 10161413
14:00+6w8106252 0.9 10171450
17:00+6w896172 0.1 10171322
20:00+5wsw71070100 0.1 1017572
13 april, tue
tue1323:00+5w6970100 0.1 1017383
02:00+4w477897 0.2 1018202
05:00+3nw227921 0.0 1019105
08:00+4wnw468369 0.8 1020374
11:00+6w556543 0.3 10221121
14:00+7wnw77655 0.4 1023973
17:00+6wnw88635 0.0 10241088
20:00+5nw79740 0.0 1025524
14 april, wed
wed1423:00+5nw610732 0.0 1026429
02:00+4nw69733 0.0 1027402
05:00+3nw23775 0.0 102899
08:00+4ese45765 0.0 1029381
11:00+6ese56623 0.0 1031785
14:00+8ene445310 0.0 10321039
17:00+8ne55543 0.0 1032757
20:00+6ne46664 0.0 1033201
15 april, thu
thu1523:00+5ne33640 0.0 103477
02:00+4ne22670 0.0 103480
05:00+4n22665 0.0 103560
08:00+5n236459 0.0 1036114
11:00+7nne345336 0.0 1037530
14:00+8nne455235 0.0 1037643
17:00+8nne56578 0.0 1036488
20:00+6nne587140 0.0 1036220